Meteo Giornale » Osservazioni meteo Gran Bretagna » Newcastle

ore: 10:50 - Osservazioni Meteo Newcastle
Lat. 55° 2' N Lon. 1° 42' W Alt. 81 metri s.l.m.

poco_nuvoloso Europe/London

2 °C

Poco Nuvoloso

Temp. 24 Ore

0 °C

3 °C

Ovest

16.7 Km/h

Dew point 0 °C

Umidità 86 %

Visibilità  10 Km

Il sole sorge alle ore 08:13

Il sole tramonta alle ore 16:22

Data e Ora Cielo e Fenomeni T °C DP °C Um. % Pres. hPa Vis. km Vento km/h
Oggi h: 10:50 poco_nuvoloso Poco Nuvoloso 2 0 86 998 10 O 16.7
Oggi h: 10:20 poco_nuvoloso Poco Nuvoloso 1 0 93 998 10 O 16.7
Oggi h: 09:50 poco_nuvoloso Poco Nuvoloso 1 0 93 998 10 O 14.8
Oggi h: 09:20 poco_nuvoloso Poco Nuvoloso 1 0 93 998 10 O/NO 9.3
Oggi h: 08:50 sereno Sereno 1 0 93 998 10 O/NO 9.3
Oggi h: 08:20 sereno Sereno 1 0 93 998 10 O 9.3
Oggi h: 07:50 sereno Sereno 1 0 93 997 10 O/SO 18.5
Oggi h: 07:20 sereno Sereno 1 0 93 997 10 O/SO 16.7
Oggi h: 06:50 sereno Sereno 1 0 93 997 10 O/SO 20.3
Oggi h: 06:20 sereno Sereno 1 -0 93 997 10 O 18.5
Oggi h: 05:50 poco_nuvoloso Poco Nuvoloso 2 0 86 998 10 O 16.7
Oggi h: 05:20 poco_nuvoloso Poco Nuvoloso 2 0 86 998 10 O 14.8
Oggi h: 04:50 poco_nuvoloso Poco Nuvoloso 2 0 86 998 10 O/SO 16.7
Oggi h: 04:20 poco_nuvoloso Poco Nuvoloso 2 0 86 998 10 O 20.3
Oggi h: 03:50 poco_nuvoloso Poco Nuvoloso 2 0 86 998 10 O 14.8
Oggi h: 03:20 poco_nuvoloso Poco Nuvoloso 2 -0 86 999 10 O/SO 11.1
Oggi h: 02:50 poco_nuvoloso Poco Nuvoloso 1 -1 86 999 10 O/SO 7.4
Oggi h: 01:50 poco_nuvoloso Poco Nuvoloso 1 -1 86 999 10 N 5.5
Oggi h: 01:20 poco_nuvoloso Poco Nuvoloso 1 -1 86 999 10 O/SO 13
Oggi h: 00:50 poco_nuvoloso Poco Nuvoloso 1 -1 86 1000 10 O/SO 9.3
Oggi h: 00:20 poco_nuvoloso Poco Nuvoloso 0 -1 92 1000 10 S/SO 9.3
Ieri h: 23:50 poco_nuvoloso Poco Nuvoloso 1 -0 93 1000 10 O/SO 11.1
Ieri h: 23:20 poco_nuvoloso Poco Nuvoloso 1 -0 93 1000 10 N 3.7
Ieri h: 22:50 poco_nuvoloso Poco Nuvoloso 1 -0 93 1000 10 O 16.7
Ieri h: 22:20 poco_nuvoloso Poco Nuvoloso 1 -1 86 1000 10 O 22.2
Ieri h: 21:50 poco_nuvoloso Poco Nuvoloso 1 -1 86 1000 10 O 20.3
Ieri h: 21:20 poco_nuvoloso Poco Nuvoloso 1 -1 86 1000 10 O 20.3
Ieri h: 20:50 poco_nuvoloso Poco Nuvoloso 1 -0 93 1000 10 O 27.8
Ieri h: 20:20 nuvoloso Nuvoloso 2 0 86 1000 8 O 31.5
Ieri h: 19:50 molto_nuvoloso Molto Nuvoloso 2 1 93 1000 8 O 14.8
Ieri h: 19:20 nuvoloso_piovaschi Debole Rovescio di Pioggia 1 0 93 999 6 SO 11.1
Ieri h: 18:50 nuvoloso_piovaschi Debole Rovescio di Pioggia 2 1 93 999 10 O/SO 18.5
Ieri h: 18:20 nuvoloso_piovaschi Debole Rovescio di Pioggia 2 0 86 999 10 O/SO 22.2
Ieri h: 17:50 poco_nuvoloso Rovescio nelle Vicinanze 2 0 86 999 10 O 37
Ieri h: 17:20 poco_nuvoloso Poco Nuvoloso 3 -0 80 999 10 O 27.8
Ieri h: 16:50 poco_nuvoloso Poco Nuvoloso 3 -1 74 999 10 O 29.6
Ieri h: 16:20 poco_nuvoloso Poco Nuvoloso 2 -1 80 999 10 O 27.8
Ieri h: 15:50 poco_nuvoloso Poco Nuvoloso 2 -1 80 999 10 O 31.5
Ieri h: 15:20 poco_nuvoloso Poco Nuvoloso 3 -1 74 999 10 O 31.5
Ieri h: 14:50 poco_nuvoloso Poco Nuvoloso 3 -1 74 999 10 O 24
Ieri h: 13:50 nuvoloso Nuvoloso 3 -1 74 999 10 O 31.5
Ieri h: 13:20 molto_nuvoloso Molto Nuvoloso 3 -0 80 999 10 O/SO 22.2
Ieri h: 12:50 poco_nuvoloso Poco Nuvoloso 3 -1 74 1000 10 O 22.2
Ieri h: 12:20 poco_nuvoloso Rovescio nelle Vicinanze 3 -1 74 1000 10 O/SO 20.3
Ieri h: 11:50 nuvoloso Nuvoloso 3 -1 74 1000 10 O 20.3
Ieri h: 11:20 nuvoloso Nuvoloso 3 -1 74 1000 10 O/SO 13
Ieri h: 10:50 nuvoloso Nuvoloso 3 -1 74 1000 10 O/SO 11.1